When you browse on this site, cookies collect data to enhance your experience and personalize the content and advertising you see.
Visit our Privacy Policy to learn more. By continuing to use the site, you agree to this use of cookies and data.

Stündliche Wetter Carryduff

Heute, 6 Juli, Montag

Zeit Temperatur Niederschläge Wind Luftdruck Luftfeuchtigkeit
00:00 +11°C° 0 mm 9 m/S 760 mmHg 81%
01:00 +10°C° 0 mm 9 m/S 760 mmHg 83%
02:00 +10°C° 0 mm 8 m/S 760 mmHg 84%
03:00 +9°C° 0 mm 8 m/S 761 mmHg 86%
04:00 +10°C° 0 mm 8 m/S 761 mmHg 85%
05:00 +10°C° 0 mm 8 m/S 761 mmHg 84%
06:00 +10°C° 0 mm 8 m/S 761 mmHg 83%
07:00 +11°C° 0 mm 8 m/S 762 mmHg 81%
08:00 +12°C° 0 mm 7 m/S 762 mmHg 79%
09:00 +12°C° 0 mm 7 m/S 763 mmHg 77%
10:00 +14°C° 0 mm 7 m/S 763 mmHg 74%
11:00 +15°C° 0 mm 7 m/S 764 mmHg 71%
12:00 +17°C° 0 mm 7 m/S 764 mmHg 68%
13:00 +17°C° 0 mm 7 m/S 764 mmHg 67%
14:00 +17°C° 0 mm 7 m/S 764 mmHg 66%
15:00 +17°C° 0 mm 7 m/S 765 mmHg 66%
16:00 +17°C° 0 mm 6 m/S 765 mmHg 67%
17:00 +16°C° 0 mm 6 m/S 765 mmHg 68%
18:00 +15°C° 0 mm 6 m/S 765 mmHg 70%
19:00 +14°C° 0 mm 5 m/S 765 mmHg 75%
20:00 +12°C° 0 mm 4 m/S 766 mmHg 80%
21:00 +11°C° 0 mm 3 m/S 766 mmHg 86%
22:00 +11°C° 0 mm 3 m/S 766 mmHg 87%
23:00 +10°C° 0 mm 2 m/S 766 mmHg 89%

Morgen, 7 Juli, Dienstag

Zeit Temperatur Niederschläge Wind Luftdruck Luftfeuchtigkeit
00:00 +10°C° 0 mm 2 m/S 765 mmHg 91%
01:00 +10°C° 0 mm 2 m/S 765 mmHg 92%
02:00 +10°C° 0 mm 2 m/S 765 mmHg 93%
03:00 +10°C° 0 mm 3 m/S 765 mmHg 94%
04:00 +11°C° 0 mm 3 m/S 765 mmHg 93%
05:00 +12°C° 0 mm 3 m/S 764 mmHg 92%
06:00 +13°C° 0 mm 4 m/S 764 mmHg 91%
07:00 +14°C° 0 mm 5 m/S 764 mmHg 87%
08:00 +15°C° 0 mm 5 m/S 764 mmHg 82%
09:00 +16°C° 0 mm 6 m/S 764 mmHg 78%
10:00 +16°C° 0 mm 7 m/S 763 mmHg 75%
11:00 +17°C° 0 mm 7 m/S 763 mmHg 73%
12:00 +17°C° 0 mm 8 m/S 762 mmHg 71%
13:00 +17°C° 0 mm 8 m/S 762 mmHg 72%
14:00 +16°C° 0 mm 8 m/S 762 mmHg 74%
15:00 +16°C° 0 mm 9 m/S 761 mmHg 75%
16:00 +16°C° 0 mm 9 m/S 761 mmHg 78%
17:00 +15°C° 0 mm 9 m/S 761 mmHg 81%
18:00 +15°C° 0 mm 9 m/S 760 mmHg 84%
19:00 +15°C° 0.2 mm 9 m/S 760 mmHg 87%
20:00 +15°C° 0.2 mm 9 m/S 760 mmHg 91%
21:00 +15°C° 0.2 mm 9 m/S 760 mmHg 94%
22:00 +15°C° 0 mm 9 m/S 760 mmHg 94%
23:00 +15°C° 0 mm 8 m/S 760 mmHg 94%

übermorgen, 8 Juli, Mittwoch

Zeit Temperatur Niederschläge Wind Luftdruck Luftfeuchtigkeit
00:00 +15°C° 0 mm 8 m/S 760 mmHg 94%
01:00 +14°C° 0 mm 7 m/S 760 mmHg 94%
02:00 +14°C° 0 mm 6 m/S 760 mmHg 94%
03:00 +13°C° 0 mm 4 m/S 760 mmHg 94%
04:00 +13°C° 0 mm 4 m/S 760 mmHg 93%
05:00 +14°C° 0 mm 4 m/S 760 mmHg 93%
06:00 +14°C° 0 mm 3 m/S 760 mmHg 92%
07:00 +15°C° 0 mm 4 m/S 761 mmHg 88%
08:00 +17°C° 0 mm 4 m/S 761 mmHg 83%
09:00 +18°C° 0 mm 4 m/S 762 mmHg 79%
10:00 +18°C° 0 mm 4 m/S 762 mmHg 76%
11:00 +19°C° 0 mm 4 m/S 762 mmHg 72%
12:00 +20°C° 0 mm 4 m/S 762 mmHg 68%
13:00 +20°C° 0 mm 4 m/S 762 mmHg 68%
14:00 +20°C° 0 mm 5 m/S 762 mmHg 69%
15:00 +20°C° 0 mm 5 m/S 762 mmHg 69%
16:00 +19°C° 0 mm 5 m/S 762 mmHg 72%
17:00 +19°C° 0 mm 4 m/S 762 mmHg 75%
18:00 +18°C° 0 mm 4 m/S 762 mmHg 78%
19:00 +17°C° 0 mm 3 m/S 762 mmHg 83%
20:00 +14°C° 0 mm 3 m/S 762 mmHg 87%
21:00 +14°C° 0 mm 2 m/S 762 mmHg 92%
22:00 +14°C° 0 mm 2 m/S 762 mmHg 92%
23:00 +14°C° 0 mm 2 m/S 762 mmHg 93%

9 Juli, Donnerstag

Zeit Temperatur Niederschläge Wind Luftdruck Luftfeuchtigkeit
00:00 +13°C° 0 mm 2 m/S 761 mmHg 94%
01:00 +13°C° 0 mm 3 m/S 761 mmHg 94%
02:00 +14°C° 0 mm 4 m/S 761 mmHg 94%
03:00 +15°C° 0 mm 5 m/S 760 mmHg 94%
04:00 +15°C° 0 mm 5 m/S 760 mmHg 93%
05:00 +15°C° 0 mm 5 m/S 760 mmHg 92%
06:00 +16°C° 0 mm 6 m/S 759 mmHg 91%
07:00 +16°C° 0 mm 6 m/S 759 mmHg 90%
08:00 +17°C° 0 mm 7 m/S 759 mmHg 88%
09:00 +17°C° 0 mm 7 m/S 759 mmHg 86%
10:00 +17°C° 0.1 mm 8 m/S 758 mmHg 87%
11:00 +17°C° 0.1 mm 8 m/S 758 mmHg 87%
12:00 +17°C° 0.1 mm 9 m/S 758 mmHg 88%
13:00 +17°C° 0 mm 8 m/S 758 mmHg 88%
14:00 +17°C° 0 mm 8 m/S 758 mmHg 89%
15:00 +17°C° 0 mm 8 m/S 758 mmHg 89%
16:00 +16°C° 0 mm 7 m/S 758 mmHg 87%
17:00 +16°C° 0 mm 7 m/S 758 mmHg 86%
18:00 +16°C° 0 mm 6 m/S 758 mmHg 84%
19:00 +14°C° 0 mm 6 m/S 758 mmHg 84%
20:00 +13°C° 0 mm 5 m/S 759 mmHg 84%
21:00 +10°C° 0 mm 5 m/S 759 mmHg 83%
22:00 +11°C° 0 mm 4 m/S 759 mmHg 85%
23:00 +10°C° 0 mm 4 m/S 760 mmHg 86%

10 Juli, Freitag

Zeit Temperatur Niederschläge Wind Luftdruck Luftfeuchtigkeit
00:00 +9°C° 0 mm 3 m/S 760 mmHg 87%
01:00 +8°C° 0 mm 4 m/S 760 mmHg 88%
02:00 +8°C° 0 mm 4 m/S 760 mmHg 88%
03:00 +7°C° 0 mm 4 m/S 761 mmHg 89%
04:00 +8°C° 0 mm 4 m/S 761 mmHg 88%
05:00 +9°C° 0 mm 5 m/S 761 mmHg 86%
06:00 +9°C° 0 mm 5 m/S 761 mmHg 85%
07:00 +11°C° 0 mm 6 m/S 762 mmHg 80%
08:00 +13°C° 0 mm 6 m/S 762 mmHg 74%
09:00 +15°C° 0 mm 6 m/S 762 mmHg 69%
10:00 +15°C° 0 mm 6 m/S 763 mmHg 67%
11:00 +16°C° 0 mm 6 m/S 763 mmHg 64%
12:00 +17°C° 0 mm 6 m/S 763 mmHg 62%
13:00 +17°C° 0 mm 6 m/S 763 mmHg 62%
14:00 +17°C° 0 mm 6 m/S 763 mmHg 62%
15:00 +17°C° 0 mm 6 m/S 764 mmHg 62%
16:00 +16°C° 0 mm 6 m/S 764 mmHg 64%
17:00 +16°C° 0 mm 6 m/S 764 mmHg 67%
18:00 +15°C° 0 mm 5 m/S 764 mmHg 69%
19:00 +14°C° 0 mm 5 m/S 764 mmHg 75%
20:00 +12°C° 0 mm 4 m/S 765 mmHg 81%
21:00 +10°C° 0 mm 3 m/S 765 mmHg 87%
22:00 +10°C° 0 mm 3 m/S 766 mmHg 88%
23:00 +9°C° 0 mm 3 m/S 766 mmHg 89%

11 Juli, Samstag

Zeit Temperatur Niederschläge Wind Luftdruck Luftfeuchtigkeit
00:00 +9°C° 0 mm 3 m/S 766 mmHg 90%
01:00 +9°C° 0 mm 2 m/S 766 mmHg 90%
02:00 +8°C° 0 mm 2 m/S 766 mmHg 90%
03:00 +9°C° 0 mm 1 m/S 766 mmHg 90%
04:00 +10°C° 0 mm 1 m/S 766 mmHg 87%
05:00 +11°C° 0 mm 1 m/S 766 mmHg 85%
06:00 +11°C° 0 mm 0 m/S 766 mmHg 82%
07:00 +14°C° 0 mm 1 m/S 767 mmHg 76%
08:00 +15°C° 0 mm 1 m/S 767 mmHg 70%
09:00 +18°C° 0 mm 1 m/S 767 mmHg 64%
10:00 +18°C° 0 mm 1 m/S 767 mmHg 63%
11:00 +18°C° 0 mm 2 m/S 767 mmHg 63%
12:00 +18°C° 0 mm 2 m/S 767 mmHg 63%
13:00 +18°C° 0.1 mm 2 m/S 767 mmHg 64%
14:00 +19°C° 0.1 mm 3 m/S 767 mmHg 65%
15:00 +19°C° 0.1 mm 3 m/S 767 mmHg 66%
16:00 +19°C° 0.1 mm 3 m/S 767 mmHg 68%
17:00 +18°C° 0.1 mm 3 m/S 767 mmHg 71%
18:00 +18°C° 0.1 mm 3 m/S 767 mmHg 73%
19:00 +16°C° 0 mm 3 m/S 767 mmHg 76%
20:00 +15°C° 0 mm 2 m/S 768 mmHg 80%
21:00 +13°C° 0 mm 2 m/S 768 mmHg 83%
22:00 +12°C° 0 mm 2 m/S 768 mmHg 84%
23:00 +11°C° 0 mm 3 m/S 768 mmHg 84%
Mehr zeigen